Regional Weather Roundup
Issued by NWS

Home | Current Version | Previous Version | Text Only | Print | Product List | Glossary On
Versions: 1 2 3 4 5 6 7 8 9 10 11 12 13 14 15 16 17 18 19 20 21 22 23 24 25 26 27 28 29 30 31 32 33 34 35 36 37 38 39 40 41 42 43 44 45 46 47 48 49 50
000
ASUS42 KTBW 281510
RWRFL
FLORIDA REGIONAL WEATHER ROUNDUP
NATIONAL WEATHER SERVICE TAMPA BAY RUSKIN FL
1000 AM EST SAT FEB 28 2015

NOTE: "FAIR" INDICATES FEW OR NO CLOUDS BELOW 12,000 FEET WITH NO
SIGNIFICANT WEATHER AND/OR OBSTRUCTIONS TO VISIBILITY.


FLZ001>010-012>015-112-114-115-281600-
PANHANDLE FLORIDA

CITY           SKY/WX    TMP DP  RH WIND       PRES   REMARKS
PENSACOLA      MOSUNNY   47  32  56 NE7       30.43S WCI  44
PENSACOLA NAS  PTSUNNY   50  34  54 NE10      30.43R
MILTON NAS     SUNNY     50  32  50 E13G21    30.45R
CRESTVIEW      CLOUDY    49  35  58 NE9       30.47R WCI  45
DUKE FIELD     CLOUDY    46  34  61 NE9       30.43S WCI  42
VALPARAISO     CLOUDY    48  35  60 NE15      30.43R WCI  42
MARY ESTHER    CLOUDY    48  31  51 NE12      30.42S WCI  43
TRI COUNTY     CLOUDY    47  37  68 VRB6      30.48R WCI  44
PANAMA CITY    CLOUDY    48  40  73 N9        30.43R WCI  44
TYNDALL AFB    CLOUDY    50  43  78 E10G18    30.42R
APALACHICOLA   CLOUDY    52  43  71 NE13      30.42R

STATION/POSITION SKY/WX   TEMP    WIND        PRES    WAVE   SWELL
                          AIR SEA DIR/SP/G            HT/PER HT/PER
                          (F)     (DEG/KT/KT) (MB)    (FT/S) (FT/S)
30.1N   87.6W              48 62   50/ 19/ 23 1029.3R   5/ 6   2/17
29.2N   88.2W              60 70   70/ 17/ 21 1028.6R   7/ 7
28.7N   86.0W              59 67   60/ 16/ 21 1028.4R   6/ 6
PANAMA CITY BEAC           48 56   30/  8/ 12 1030.1R
CAPE SAN BLAS    NOT AVBL
TOWER C                    53      60/ 24/ 25 1028.8R
28.5N   84.5W              59 65   60/ 19/ 23 1027.0F   6/ 6

$$
FLZ011-016>038-118-127-128-134-139-239-281600-
NORTH FLORIDA

CITY           SKY/WX    TMP DP  RH WIND       PRES   REMARKS
MARIANNA       CLOUDY    47  40  76 NE10      30.47R WCI  42
TALLAHASSEE    LGT RAIN  49  45  86 NE6       30.45R FOG
PERRY          HVY RAIN  49  46  90 NE6       30.45R
CROSS CITY       N/A     53  49  86 NE10G18   30.40R
LAKE CITY      CLOUDY    50  46  87 NE10      30.43R
GAINESVILLE    CLOUDY    56  54  93 NE8       30.41R
MAYPORT NAS    CLOUDY    55  52  89 N14G24    30.42S FOG
JACKSONVILLE   CLOUDY    53  53 100 NE14      30.44R
JAX NAS        CLOUDY    58  53  84 N14       30.43R
JAX CRAIG      CLOUDY    55  51  86 NE15      30.43R
JAX CECIL      CLOUDY    54  52  94 NE12      30.42R FOG
FERNANDINA BEA CLOUDY    57  54  88 N13G28    30.43R
ST AUGUSTINE   CLOUDY    58  56  93 N13       30.41S FOG

STATION/POSITION SKY/WX   TEMP    WIND        PRES    WAVE   SWELL
                          AIR SEA DIR/SP/G            HT/PER HT/PER
                          (F)     (DEG/KT/KT) (MB)    (FT/S) (FT/S)
SHELL POINT      NOT AVBL
KEATON BEACH               50      40/  7/ 10 1030.1R
CEDAR KEY                  55      60/ 14/ 16 1028.0F
FERNANDINA                 52 53   40/  7/ 17 1030.4R
30.7N   81.3W                 52                N/A     6/ 7   2/11
MAYPORT                    54 55   20/ 17/ 21 1029.9F
31.4N   80.9W              51 52   30/ 27/ 33 1031.5R   8/ 7   2/11
ST AUGUSTINE               56     350/ 13/ 16 1029.6F

$$
FLZ040-043>046-052-053-057-058-063-144-281600-
INTERIOR CENTRAL FLORIDA

CITY           SKY/WX    TMP DP  RH WIND       PRES   REMARKS
OCALA          MOSUNNY   57  54  88 NE6       30.38R
THE VILLAGES     N/A     59  57  94 N7        30.28R
LEESBURG       CLOUDY    61  58  90 NE10      30.37R
SANFORD        CLOUDY    64  60  87 N7        30.36R
ORLANDO EXEC   CLOUDY    65  62  90 N8        30.36R FOG
ORLANDO INTL   CLOUDY    68  65  90 NE12      30.35R
KISSIMMEE      LGT RAIN  66  66 100 NE8       30.34R FOG
WINTER HAVEN   CLOUDY    65  63  93 NE9       30.34R
LAKELAND       CLOUDY    63  63 100 NE10      30.33R
BARTOW         CLOUDY    63  63 100 NE10      30.33R
OKEECHOBEE     RAIN      68  68 100 NE7       30.31R

$$
FLZ041-047-054-059-064-141-147-281600-
EAST CENTRAL FLORIDA

CITY           SKY/WX    TMP DP  RH WIND       PRES   REMARKS
ORMOND BEACH   CLOUDY    63  61  94 NE6       30.38R FOG
DAYTONA BEACH  CLOUDY    66  62  87 E7        30.38R
DELAND         CLOUDY   N/A N/A N/A N8        30.38S
NEW SMYRNA BEA CLOUDY    66  61  82 E8        30.38R
JFK SPACE CTR  CLOUDY    67  63  87 E9        30.34R
TITUSVILLE     CLOUDY    66  64  94 E21       30.35R
CAPE CANAVERAL DRIZZLE   66  64  94 E10       30.34R
PATRICK AFB    MOSUNNY   68  66  94 NE15      30.32R
MELBOURNE      CLOUDY    68  65  90 E15       30.32S FOG
VERO BEACH     LGT RAIN  69  64  84 NE15      30.32R
FT PIERCE      LGT RAIN  70  68  93 E10       30.31R
STUART         RAIN      70  68  94 E14G23    30.30R FOG

STATION/POSITION SKY/WX   TEMP    WIND        PRES    WAVE   SWELL
                          AIR SEA DIR/SP/G            HT/PER HT/PER
                          (F)     (DEG/KT/KT) (MB)    (FT/S) (FT/S)
28.5N   80.2W              69 69   70/ 23/ 29 1026.6R
28.9N   78.5W              68 70   60/ 21/ 27 1028.4S   8/ 7   3/11
TRIDENT PIER     NOT AVBL
28.4N   80.5W                 63                N/A     5/ 8   2/11
27.6N   80.2W                 71                N/A     7/ 7   2/13

$$
FLZ050-056-061-142-242-148-248-149-249-151-251-155-255-
160-260-281600-
WEST CENTRAL FLORIDA

CITY           SKY/WX    TMP DP  RH WIND       PRES   REMARKS
CRYSTAL RIVER  DRIZZLE   59  54  82 E8        30.35F
INVERNESS      CLOUDY    59  54  82 NE6       30.37R
BROOKSVILLE    CLOUDY    61  58  90 NE12      30.35R
ZEPHYRHILLS    LGT RAIN  59  59 100 CALM      30.35R
CLEARWATER     LGT RAIN  61  60  97 NE8       30.32R
TAMPA INTL     LGT RAIN  61  58  90 NE8       30.33R FOG
TAMPA EXEC     LGT RAIN  63  59  88 NE6       30.33S
PLANT CITY     CLOUDY   N/A N/A N/A NE6       30.35R
MACDILL AFB    CLOUDY    61  61 100 NE10      30.31R
PETER O KNIGHT RAIN      63  61  94 NE10      30.32R
ST PETERSBURG  LGT RAIN  62  59  90 NE13      30.31R
SARASOTA       CLOUDY    64  61  90 E14       30.28R
VENICE         FAIR      66  63  88 E15       30.30R

STATION/POSITION SKY/WX   TEMP    WIND        PRES    WAVE   SWELL
                          AIR SEA DIR/SP/G            HT/PER HT/PER
                          (F)     (DEG/KT/KT) (MB)    (FT/S) (FT/S)
CEDAR KEY                  55      60/ 14/ 16 1028.0F
28.5N   84.5W              59 65   60/ 19/ 23 1027.0F   6/ 6
27.3N   84.3W                 69                N/A     6/ 7
CLEARWATER BEACH           60 61   40/  8/ 10 1026.5R
MIDDLE TAMPA BAY           61      50/ 12/ 12 1026.5R
VENICE                     65 62   80/ 13/ 17 1025.2R

$$
FLZ066-069-070-075>078-162-262-165-265-281600-
SOUTHWEST FLORIDA AND KEYS

CITY           SKY/WX    TMP DP  RH WIND       PRES   REMARKS
PUNTA GORDA    PTSUNNY   71  64  78 NE14      30.30S
FT MYERS       CLOUDY    72  66  81 NE9       30.27R
SOUTHWEST INTL CLOUDY    72  65  78 NE13      30.28R
NAPLES         MOSUNNY   77  69  76 E12       30.25R
MARCO ISLAND   CLOUDY    75  68  78 E9        30.25S
IMMOKALEE      PTSUNNY  N/A N/A N/A E10       30.28R
MARATHON       SUNNY     80  74  81 E9        30.23R
KEY WEST NAS   MOSUNNY   79  72  79 E16       30.23R
KEY WEST INTL  SUNNY     78  73  84 E13       30.23R

STATION/POSITION SKY/WX   TEMP    WIND        PRES    WAVE   SWELL
                          AIR SEA DIR/SP/G            HT/PER HT/PER
                          (F)     (DEG/KT/KT) (MB)    (FT/S) (FT/S)
VENICE                     65 62   80/ 13/ 17 1025.2R
NAPLES                     74 66   90/  6/  9 1024.1R
26.0N   85.6W              69 78   60/ 14/ 16 1024.8R   6/ 7   3/ 7
DRY TORTUGAS               68      60/ 10/ 11 1023.1R
SAND KEY                   75      90/ 10/ 12 1023.6R
SOMBRERO KEY               76      90/  9/ 10 1024.4R
LONG KEY                   76 76  110/ 16/ 18 1023.9R
MOLASSES REEF              76 75  110/ 14/ 15 1023.9R

$$
FLZ067-068-071>074-168-172>174-281600-
SOUTHEAST FLORIDA

CITY           SKY/WX    TMP DP  RH WIND       PRES   REMARKS
W PALM BEACH   PTSUNNY   77  70  79 E16       30.27R
FT LAUDER-EXEC LGT RAIN  74  72  93 E13       30.26R
FT LAUDERDALE  LGT RAIN  73  72  96 SE12      30.27R FOG
POMPANO BEACH  LGT RAIN  75  71  87 E12       30.27R FOG
PEMBROKE PINES HVY RAIN  69  66  90 E20       30.29R FOG
OPA LOCKA      HVY RAIN  74  71  91 E5        30.28R FOG
MIAMI          CLOUDY    79  70  74 E15       30.26R
WEST KENDALL   LGT RAIN  76  71  85 SE16      30.26R
HOMESTEAD      PTSUNNY   79  72  78 E10       30.25R

STATION/POSITION SKY/WX   TEMP    WIND        PRES    WAVE   SWELL
                          AIR SEA DIR/SP/G            HT/PER HT/PER
                          (F)     (DEG/KT/KT) (MB)    (FT/S) (FT/S)
PORT EVERGLADES            73      90/  9/ 14 1024.9
VIRGINIA KEY               76 74  100/ 11/ 14 1024.1R
LAKE WORTH                 75 73  100/ 17/ 19 1024.6R


USA.gov is the U.S. government's official web portal to all federal, state and local government web resources and services.